EJU52TP LFSB-LOWI

Flight info

Callsign EJU52TP
Flight time N/A
Altitude 23000
Route ELBEG Y715 AMRUP N491 DEGES/N0395F240 N871 GAMSA/N0390F230 N871 MADEB MADEB1B
Aircraft A20N/M-SDE2E3FGHIRWXY/LB1

Departure

Time 2026-04-28 08:17
Airport EuroAirport Basel–Mulhouse–Freiburg (LFSB)

Arrival

Time N/A
Airport Innsbruck Airport (LOWI)
Time Latitude Longitude Altitude Speed Heading
2026-04-28 08:04 47.59834 7.52810 877 ft 0 kts 69°
2026-04-28 08:11 47.59830 7.52790 864 ft 2 kts 78°
2026-04-28 08:12 47.59828 7.52766 892 ft 2 kts 92°
2026-04-28 08:12 47.59831 7.52742 891 ft 2 kts 115°
2026-04-28 08:12 47.59840 7.52722 891 ft 2 kts 137°
2026-04-28 08:12 47.59853 7.52708 891 ft 2 kts 150°
2026-04-28 08:13 47.59864 7.52700 891 ft 1 kts 156°
2026-04-28 08:13 47.59865 7.52699 891 ft 0 kts 156°
2026-04-28 08:14 47.59842 7.52714 891 ft 6 kts 156°
2026-04-28 08:14 47.59792 7.52746 893 ft 18 kts 157°
2026-04-28 08:15 47.59681 7.52824 894 ft 15 kts 155°
2026-04-28 08:15 47.59564 7.52906 897 ft 12 kts 155°
2026-04-28 08:15 47.59516 7.52911 898 ft 10 kts 206°
2026-04-28 08:15 47.59480 7.52833 898 ft 9 kts 242°
2026-04-28 08:16 47.59431 7.52666 897 ft 16 kts 246°
2026-04-28 08:16 47.59443 7.52605 895 ft 8 kts 319°
2026-04-28 08:16 47.59467 7.52587 894 ft 3 kts 335°
2026-04-28 08:16 47.59627 7.52476 894 ft 57 kts 336°
2026-04-28 08:17 47.60188 7.52090 894 ft 121 kts 334°
2026-04-28 08:17 47.61112 7.51443 982 ft 163 kts 334°
2026-04-28 08:17 47.62133 7.50747 1643 ft 161 kts 335°
2026-04-28 08:17 47.63161 7.50046 2351 ft 166 kts 337°
2026-04-28 08:18 47.64269 7.49283 2873 ft 190 kts 337°
2026-04-28 08:18 47.65573 7.48372 3211 ft 222 kts 336°
2026-04-28 08:18 47.67033 7.47340 3839 ft 240 kts 335°
2026-04-28 08:18 47.68552 7.46302 4839 ft 240 kts 340°
2026-04-28 08:19 47.70192 7.45888 5783 ft 241 kts
2026-04-28 08:19 47.71759 7.46706 6632 ft 243 kts 38°
2026-04-28 08:19 47.72811 7.48640 7381 ft 245 kts 70°
2026-04-28 08:19 47.73046 7.51126 8122 ft 246 kts 97°
2026-04-28 08:20 47.72767 7.53654 8913 ft 249 kts 103°
2026-04-28 08:20 47.72387 7.56185 9686 ft 254 kts 104°
2026-04-28 08:20 47.71997 7.58764 10430 ft 258 kts 104°
2026-04-28 08:20 47.71611 7.61386 11179 ft 262 kts 104°
2026-04-28 08:21 47.71230 7.64044 11942 ft 265 kts 104°
2026-04-28 08:21 47.70851 7.66710 12681 ft 269 kts 103°
2026-04-28 08:21 47.70465 7.69449 13446 ft 273 kts 103°
2026-04-28 08:21 47.70077 7.72225 14163 ft 276 kts 103°
2026-04-28 08:22 47.69907 7.75090 14794 ft 283 kts 85°
2026-04-28 08:22 47.70249 7.77972 15443 ft 286 kts 75°
2026-04-28 08:22 47.70862 7.80817 16089 ft 289 kts 69°
2026-04-28 08:22 47.71607 7.83610 16736 ft 293 kts 67°
2026-04-28 08:23 47.72401 7.86412 17377 ft 296 kts 66°
2026-04-28 08:23 47.73196 7.89229 18034 ft 300 kts 67°
2026-04-28 08:23 47.73985 7.92120 18666 ft 304 kts 68°
2026-04-28 08:23 47.74770 7.95098 19028 ft 317 kts 68°
2026-04-28 08:24 47.75578 7.98246 19290 ft 333 kts 69°
2026-04-28 08:24 47.76402 8.01519 19759 ft 342 kts 69°
2026-04-28 08:24 47.77147 8.04895 20307 ft 348 kts 78°
2026-04-28 08:24 47.77313 8.08508 20829 ft 352 kts 98°
2026-04-28 08:25 47.76865 8.12101 21357 ft 356 kts 106°
2026-04-28 08:25 47.76159 8.15633 21931 ft 358 kts 111°
2026-04-28 08:25 47.75306 8.19134 22465 ft 363 kts 114°
2026-04-28 08:26 47.73425 8.26214 23059 ft 379 kts 115°
2026-04-28 08:26 47.72437 8.29928 23062 ft 398 kts 114°
2026-04-28 08:26 47.71410 8.33871 23061 ft 417 kts 114°
2026-04-28 08:26 47.70358 8.37985 23061 ft 434 kts 113°
2026-04-28 08:27 47.69275 8.42274 23063 ft 451 kts 113°
2026-04-28 08:27 47.68177 8.46634 23066 ft 460 kts 113°
2026-04-28 08:27 47.67049 8.51111 23073 ft 461 kts 113°
2026-04-28 08:27 47.65928 8.55548 23070 ft 461 kts 113°
2026-04-28 08:28 47.64793 8.60022 23074 ft 461 kts 113°
2026-04-28 08:28 47.63661 8.64464 23071 ft 461 kts 113°
2026-04-28 08:28 47.62520 8.68923 23073 ft 461 kts 113°
2026-04-28 08:28 47.61377 8.73377 23074 ft 461 kts 113°
2026-04-28 08:29 47.60251 8.77753 23071 ft 461 kts 114°
2026-04-28 08:29 47.58868 8.82012 23076 ft 457 kts 123°
2026-04-28 08:29 47.57222 8.86030 23072 ft 456 kts 126°
2026-04-28 08:29 47.55483 8.89965 23074 ft 455 kts 127°
2026-04-28 08:30 47.53699 8.93827 23071 ft 454 kts 128°
2026-04-28 08:30 47.51897 8.97648 23070 ft 454 kts 128°
2026-04-28 08:30 47.50079 9.01479 23066 ft 454 kts 128°
2026-04-28 08:30 47.48273 9.05286 23066 ft 453 kts 128°
2026-04-28 08:31 47.46466 9.09107 23067 ft 453 kts 128°
2026-04-28 08:31 47.44661 9.12936 23072 ft 452 kts 128°
2026-04-28 08:31 47.42866 9.16745 23078 ft 452 kts 128°
2026-04-28 08:31 47.41038 9.20474 23073 ft 440 kts 133°
2026-04-28 08:32 47.38987 9.23647 23077 ft 415 kts 144°
2026-04-28 08:32 47.36645 9.25873 23081 ft 388 kts 162°
2026-04-28 08:32 47.34132 9.26803 23078 ft 359 kts 183°
2026-04-28 08:32 47.31788 9.26277 23071 ft 330 kts 207°
2026-04-28 08:33 47.29964 9.24480 23076 ft 307 kts 231°
2026-04-28 08:33 47.28860 9.21899 23077 ft 302 kts 249°
2026-04-28 08:33 47.28307 9.18880 23068 ft 304 kts 261°
2026-04-28 08:33 47.28174 9.15798 23062 ft 307 kts 270°
2026-04-28 08:34 47.28429 9.12673 23056 ft 309 kts 281°
2026-04-28 08:34 47.29137 9.09661 23058 ft 312 kts 290°
2026-04-28 08:34 47.30084 9.06774 23059 ft 314 kts 294°
2026-04-28 08:34 47.31152 9.03958 23064 ft 315 kts 296°
2026-04-28 08:35 47.32275 9.01176 23059 ft 316 kts 297°
2026-04-28 08:35 47.33413 8.98404 23067 ft 316 kts 297°
2026-04-28 08:35 47.34557 8.95628 23068 ft 316 kts 297°
2026-04-28 08:35 47.35691 8.92854 23072 ft 316 kts 296°
2026-04-28 08:36 47.36814 8.90086 23071 ft 315 kts 297°
2026-04-28 08:36 47.38130 8.87515 23068 ft 320 kts 309°
2026-04-28 08:36 47.39874 8.85429 23075 ft 327 kts 324°
2026-04-28 08:36 47.42010 8.84160 23076 ft 337 kts 342°
2026-04-28 08:37 47.44374 8.83988 23071 ft 348 kts
2026-04-28 08:37 47.46716 8.85050 23072 ft 358 kts 24°
2026-04-28 08:37 47.48713 8.87298 23073 ft 366 kts 46°
2026-04-28 08:37 47.50073 8.90494 23074 ft 371 kts 69°
2026-04-28 08:38 47.50581 8.94164 23070 ft 370 kts 91°
2026-04-28 08:38 47.50164 8.97938 23072 ft 366 kts 114°
2026-04-28 08:38 47.49139 9.01306 23070 ft 364 kts 121°
2026-04-28 08:38 47.47897 9.04583 23065 ft 364 kts 125°
2026-04-28 08:39 47.46564 9.07761 23065 ft 364 kts 126°
2026-04-28 08:39 47.45201 9.10910 23066 ft 363 kts 127°
2026-04-28 08:39 47.43842 9.14059 23073 ft 363 kts 126°
2026-04-28 08:39 47.42498 9.17222 23074 ft 363 kts 126°
2026-04-28 08:40 47.41118 9.20324 23072 ft 360 kts 133°
2026-04-28 08:40 47.39373 9.22885 23076 ft 351 kts 149°
2026-04-28 08:40 47.37259 9.24568 23078 ft 339 kts 168°
2026-04-28 08:40 47.34984 9.25131 23078 ft 327 kts 187°
2026-04-28 08:41 47.32786 9.24574 23076 ft 317 kts 205°
2026-04-28 08:41 47.30880 9.23043 23071 ft 310 kts 222°
2026-04-28 08:41 47.29417 9.20764 23065 ft 306 kts 238°
2026-04-28 08:41 47.28484 9.17975 23056 ft 304 kts 253°
2026-04-28 08:42 47.28165 9.14937 23058 ft 306 kts 269°
2026-04-28 08:42 47.28462 9.11833 23061 ft 309 kts 284°
2026-04-28 08:42 47.29297 9.08861 23061 ft 313 kts 292°
2026-04-28 08:42 47.30315 9.06054 23062 ft 315 kts 296°
2026-04-28 08:43 47.31429 9.03266 23063 ft 316 kts 297°
2026-04-28 08:43 47.32571 9.00496 23063 ft 316 kts 297°
2026-04-28 08:43 47.33710 8.97725 23070 ft 316 kts 297°
2026-04-28 08:43 47.34851 8.94946 23068 ft 316 kts 297°
2026-04-28 08:44 47.35976 8.92171 23073 ft 316 kts 296°
2026-04-28 08:44 47.37112 8.89403 23068 ft 316 kts 300°
2026-04-28 08:44 47.38544 8.86908 23069 ft 322 kts 313°
2026-04-28 08:44 47.40398 8.85002 23073 ft 329 kts 329°
2026-04-28 08:45 47.42610 8.84000 23075 ft 340 kts 348°
2026-04-28 08:45 47.44974 8.84136 23075 ft 351 kts
2026-04-28 08:45 47.47252 8.85495 23071 ft 361 kts 29°
2026-04-28 08:45 47.49124 8.88015 23072 ft 368 kts 51°
2026-04-28 08:46 47.50286 8.91383 23070 ft 371 kts 74°
2026-04-28 08:46 47.50565 8.95157 23068 ft 370 kts 97°
2026-04-28 08:46 47.49933 8.98803 23073 ft 365 kts 117°
2026-04-28 08:46 47.48830 9.02172 23066 ft 364 kts 122°
2026-04-28 08:47 47.47553 9.05425 23065 ft 364 kts 126°
2026-04-28 08:47 47.46205 9.08595 23066 ft 364 kts 127°
2026-04-28 08:47 47.44843 9.11736 23073 ft 363 kts 127°
2026-04-28 08:47 47.43486 9.14893 23078 ft 363 kts 126°
2026-04-28 08:48 47.42145 9.18064 23074 ft 363 kts 126°
2026-04-28 08:48 47.40712 9.21042 23074 ft 358 kts 137°
2026-04-28 08:48 47.38861 9.23414 23074 ft 348 kts 154°
2026-04-28 08:48 47.36697 9.24820 23077 ft 336 kts 173°
2026-04-28 08:49 47.34422 9.25097 23076 ft 324 kts 192°
2026-04-28 08:49 47.32276 9.24279 23073 ft 315 kts 210°
2026-04-28 08:49 47.30472 9.22541 23067 ft 308 kts 226°
2026-04-28 08:49 47.29132 9.20111 23058 ft 305 kts 242°
2026-04-28 08:50 47.28341 9.17229 23050 ft 304 kts 257°
2026-04-28 08:50 47.28169 9.14130 23058 ft 306 kts 273°
2026-04-28 08:50 47.28628 9.11052 23062 ft 310 kts 288°
2026-04-28 08:50 47.29533 9.08154 23060 ft 313 kts 294°
2026-04-28 08:51 47.30593 9.05338 23061 ft 315 kts 296°
2026-04-28 08:51 47.31720 9.02555 23066 ft 316 kts 297°
2026-04-28 08:51 47.32848 8.99825 23066 ft 316 kts 297°
2026-04-28 08:51 47.33990 8.97053 23069 ft 316 kts 297°
2026-04-28 08:52 47.35126 8.94273 23064 ft 316 kts 296°
2026-04-28 08:52 47.36252 8.91489 23071 ft 315 kts 296°
2026-04-28 08:52 47.37428 8.88749 23068 ft 318 kts 303°
2026-04-28 08:52 47.38959 8.86373 23072 ft 323 kts 316°
2026-04-28 08:53 47.40912 8.84658 23071 ft 332 kts 333°
2026-04-28 08:53 47.43192 8.83920 23073 ft 343 kts 353°
2026-04-28 08:53 47.45590 8.84367 23072 ft 354 kts 13°
2026-04-28 08:53 47.47802 8.86052 23072 ft 363 kts 35°
2026-04-28 08:54 47.49494 8.88796 23067 ft 370 kts 57°
2026-04-28 08:54 47.50444 8.92315 23070 ft 372 kts 80°
2026-04-28 08:54 47.50487 8.96112 23068 ft 369 kts 103°
2026-04-28 08:54 47.49671 8.99671 23072 ft 365 kts 118°
2026-04-28 08:55 47.48517 9.03005 23064 ft 365 kts 123°
2026-04-28 08:55 47.47218 9.06223 23064 ft 364 kts 126°
2026-04-28 08:55 47.45861 9.09388 23061 ft 364 kts 127°
2026-04-28 08:55 47.44499 9.12532 23064 ft 363 kts 127°
2026-04-28 08:56 47.43150 9.15681 23065 ft 363 kts 126°
2026-04-28 08:56 47.41811 9.18856 23064 ft 363 kts 127°
2026-04-28 08:56 47.40264 9.21743 23063 ft 355 kts 141°
2026-04-28 08:56 47.38320 9.23887 23066 ft 344 kts 159°
2026-04-28 08:57 47.36107 9.25005 23062 ft 332 kts 178°
2026-04-28 08:57 47.33844 9.24991 23063 ft 321 kts 196°
2026-04-28 08:57 47.31771 9.23915 23062 ft 312 kts 214°
2026-04-28 08:57 47.30094 9.22000 23060 ft 307 kts 230°
2026-04-28 08:58 47.28873 9.19406 23057 ft 304 kts 246°
2026-04-28 08:58 47.28233 9.16444 23056 ft 304 kts 261°
2026-04-28 08:58 47.28216 9.13368 23056 ft 307 kts 277°
2026-04-28 08:58 47.28824 9.10343 23060 ft 311 kts 290°
2026-04-28 08:59 47.29782 9.07470 23053 ft 314 kts 295°
2026-04-28 08:59 47.30865 9.04665 23057 ft 315 kts 296°
2026-04-28 08:59 47.31994 9.01884 23066 ft 316 kts 297°
2026-04-28 08:59 47.33133 8.99119 23065 ft 316 kts 297°
2026-04-28 09:00 47.34280 8.96340 23068 ft 316 kts 297°
2026-04-28 09:00 47.35415 8.93560 23068 ft 316 kts 297°
2026-04-28 09:00 47.36537 8.90778 23067 ft 315 kts 296°
2026-04-28 09:00 47.37773 8.88103 23071 ft 319 kts 306°
2026-04-28 09:01 47.39411 8.85863 23077 ft 325 kts 320°
2026-04-28 09:01 47.41468 8.84362 23074 ft 335 kts 338°
2026-04-28 09:01 47.42995 8.83932 23068 ft 342 kts 351°
2026-04-28 09:01 47.45389 8.84274 23076 ft 353 kts 11°
2026-04-28 09:02 47.48265 8.86616 23073 ft 365 kts 40°
2026-04-28 09:02 47.49389 8.88551 23071 ft 370 kts 55°
2026-04-28 09:02 47.50544 8.93263 23071 ft 372 kts 86°
2026-04-28 09:02 47.50352 8.97048 23072 ft 368 kts 109°
2026-04-28 09:03 47.49744 8.99434 23071 ft 365 kts 118°
2026-04-28 09:03 47.48602 9.02783 23066 ft 365 kts 123°
2026-04-28 09:03 47.47327 9.05965 23060 ft 364 kts 126°
2026-04-28 09:03 47.45976 9.09124 23062 ft 364 kts 127°
2026-04-28 09:04 47.44612 9.12272 23064 ft 364 kts 127°
2026-04-28 09:04 47.43259 9.15425 23067 ft 363 kts 126°
2026-04-28 09:04 47.41920 9.18600 23067 ft 363 kts 126°
2026-04-28 09:04 47.40407 9.21525 23065 ft 356 kts 140°
2026-04-28 09:05 47.38494 9.23741 23062 ft 345 kts 157°
2026-04-28 09:05 47.36289 9.24956 23067 ft 333 kts 176°
2026-04-28 09:05 47.34029 9.25036 23062 ft 322 kts 194°
2026-04-28 09:05 47.31937 9.24052 23057 ft 313 kts 212°
2026-04-28 09:06 47.30206 9.22178 23062 ft 307 kts 229°
2026-04-28 09:06 47.28952 9.19653 23055 ft 304 kts 244°
2026-04-28 09:06 47.28261 9.16728 23057 ft 304 kts 259°
2026-04-28 09:06 47.28187 9.13614 23055 ft 307 kts 275°
2026-04-28 09:07 47.28752 9.10570 23063 ft 311 kts 290°
2026-04-28 09:07 47.29701 9.07686 23056 ft 314 kts 294°
2026-04-28 09:07 47.30780 9.04887 23058 ft 316 kts 296°
2026-04-28 09:07 47.31907 9.02105 23066 ft 316 kts 297°
2026-04-28 09:08 47.33029 8.99365 23067 ft 316 kts 297°
2026-04-28 09:08 47.34173 8.96589 23064 ft 316 kts 297°
2026-04-28 09:08 47.35306 8.93821 23068 ft 316 kts 297°
2026-04-28 09:08 47.36432 8.91040 23072 ft 316 kts 296°
2026-04-28 09:09 47.37646 8.88338 23072 ft 318 kts 305°
2026-04-28 09:09 47.39251 8.86038 23071 ft 325 kts 319°
2026-04-28 09:09 47.41267 8.84460 23071 ft 334 kts 336°
2026-04-28 09:09 47.43583 8.83901 23076 ft 345 kts 356°
2026-04-28 09:10 47.45969 8.84545 23070 ft 355 kts 17°
2026-04-28 09:10 47.48113 8.86414 23072 ft 365 kts 38°
2026-04-28 09:10 47.49715 8.89345 23071 ft 371 kts 61°
2026-04-28 09:10 47.50519 8.92962 23067 ft 372 kts 84°
2026-04-28 09:11 47.50400 8.96759 23073 ft 369 kts 107°
2026-04-28 09:11 47.49486 9.00261 23073 ft 365 kts 119°
2026-04-28 09:11 47.48296 9.03578 23064 ft 365 kts 124°
2026-04-28 09:11 47.46985 9.06774 23065 ft 364 kts 126°
2026-04-28 09:12 47.45623 9.09937 23060 ft 364 kts 127°
2026-04-28 09:12 47.44259 9.13089 23063 ft 363 kts 127°
2026-04-28 09:12 47.42910 9.16247 23060 ft 363 kts 126°
2026-04-28 09:12 47.41589 9.19364 23063 ft 362 kts 128°
2026-04-28 09:13 47.39950 9.22178 23066 ft 354 kts 144°
2026-04-28 09:13 47.37969 9.24141 23065 ft 343 kts 161°
2026-04-28 09:13 47.35697 9.25086 23066 ft 330 kts 181°
2026-04-28 09:13 47.33452 9.24883 23067 ft 319 kts 199°
2026-04-28 09:14 47.31463 9.23674 23061 ft 311 kts 217°
2026-04-28 09:14 47.29844 9.21621 23061 ft 306 kts 233°
2026-04-28 09:14 47.28725 9.18970 23061 ft 304 kts 248°
2026-04-28 09:14 47.28181 9.15968 23054 ft 305 kts 263°
2026-04-28 09:15 47.28262 9.12851 23059 ft 308 kts 279°
2026-04-28 09:15 47.28960 9.09855 23065 ft 312 kts 291°
2026-04-28 09:15 47.29953 9.06986 23061 ft 315 kts 295°
2026-04-28 09:15 47.31056 9.04191 23061 ft 316 kts 297°
2026-04-28 09:16 47.32196 9.01413 23065 ft 317 kts 297°
2026-04-28 09:16 47.33334 8.98631 23066 ft 316 kts 297°
2026-04-28 09:16 47.34467 8.95858 23069 ft 316 kts 297°
2026-04-28 09:16 47.35600 8.93074 23075 ft 316 kts 296°
2026-04-28 09:17 47.36712 8.90323 23072 ft 315 kts 297°
2026-04-28 09:17 47.38003 8.87705 23074 ft 320 kts 308°
2026-04-28 09:17 47.39720 8.85561 23075 ft 327 kts 323°
2026-04-28 09:17 47.41830 8.84217 23072 ft 337 kts 341°
2026-04-28 09:18 47.44190 8.83946 23072 ft 348 kts
2026-04-28 09:18 47.46545 8.84901 23068 ft 358 kts 22°
2026-04-28 09:18 47.48587 8.87073 23070 ft 366 kts 44°
2026-04-28 09:18 47.50002 8.90212 23074 ft 371 kts 67°
2026-04-28 09:19 47.50579 8.93931 23069 ft 372 kts 90°
2026-04-28 09:19 47.50225 8.97682 23069 ft 367 kts 113°
2026-04-28 09:19 47.49203 9.01120 23073 ft 365 kts 121°
2026-04-28 09:19 47.47975 9.04393 23066 ft 364 kts 125°
2026-04-28 09:20 47.46644 9.07578 23064 ft 364 kts 126°
2026-04-28 09:20 47.45280 9.10731 23063 ft 363 kts 127°
2026-04-28 09:20 47.43920 9.13878 23067 ft 363 kts 126°
2026-04-28 09:20 47.42595 9.16993 23066 ft 363 kts 126°
2026-04-28 09:21 47.41225 9.20116 23063 ft 360 kts 133°
2026-04-28 09:21 47.39506 9.22729 23066 ft 351 kts 148°
2026-04-28 09:21 47.37417 9.24482 23066 ft 340 kts 166°
2026-04-28 09:21 47.35146 9.25139 23066 ft 328 kts 185°
2026-04-28 09:22 47.32934 9.24684 23066 ft 317 kts 203°
2026-04-28 09:22 47.31000 9.23231 23065 ft 310 kts 221°
2026-04-28 09:22 47.29495 9.20990 23062 ft 306 kts 237°
2026-04-28 09:22 47.28526 9.18233 23056 ft 304 kts 252°
2026-04-28 09:23 47.28138 9.15173 23055 ft 305 kts 267°
2026-04-28 09:23 47.28376 9.12098 23062 ft 309 kts 283°
2026-04-28 09:23 47.29184 9.09144 23062 ft 313 kts 292°
2026-04-28 09:23 47.30220 9.06297 23061 ft 316 kts 296°
2026-04-28 09:24 47.31336 9.03514 23064 ft 317 kts 297°
2026-04-28 09:24 47.32478 9.00738 23063 ft 317 kts 297°
2026-04-28 09:24 47.33615 8.97949 23065 ft 316 kts 297°
2026-04-28 09:24 47.34746 8.95168 23071 ft 316 kts 297°
2026-04-28 09:25 47.35875 8.92382 23071 ft 316 kts 296°
2026-04-28 09:25 47.37009 8.89605 23069 ft 316 kts 299°
2026-04-28 09:25 47.38411 8.87077 23071 ft 321 kts 311°
2026-04-28 09:25 47.40235 8.85117 23073 ft 329 kts 327°
2026-04-28 09:26 47.42427 8.84031 23076 ft 339 kts 346°
2026-04-28 09:26 47.44821 8.84074 23073 ft 350 kts
2026-04-28 09:26 47.47125 8.85360 23072 ft 360 kts 27°
2026-04-28 09:26 47.49024 8.87808 23071 ft 368 kts 50°
2026-04-28 09:27 47.50580 8.94850 23071 ft 372 kts 94°
2026-04-28 09:27 47.50334 8.98673 23070 ft 391 kts 99°
2026-04-28 09:27 47.49930 9.02757 23063 ft 411 kts 101°
2026-04-28 09:28 47.49428 9.07002 23062 ft 429 kts 102°
2026-04-28 09:28 47.48836 9.11439 23059 ft 447 kts 103°
2026-04-28 09:28 47.48182 9.16013 23066 ft 460 kts 104°
2026-04-28 09:28 47.47505 9.20608 23067 ft 461 kts 104°
2026-04-28 09:29 47.38005 9.76061 23195 ft 453 kts 105°
2026-04-28 09:29 47.37628 9.80596 23334 ft 446 kts 91°
2026-04-28 09:29 47.37469 9.85250 23132 ft 459 kts 98°
2026-04-28 09:29 47.37008 9.89927 23066 ft 462 kts 100°
2026-04-28 09:30 47.36486 9.94600 23067 ft 461 kts 101°
2026-04-28 09:30 47.35946 9.99171 23067 ft 461 kts 101°
2026-04-28 09:30 47.35382 10.03796 23068 ft 461 kts 101°
2026-04-28 09:30 47.34805 10.08449 23067 ft 461 kts 102°
2026-04-28 09:31 47.32102 10.27480 23128 ft 460 kts 103°
2026-04-28 09:31 47.31556 10.32094 23087 ft 459 kts 100°
2026-04-28 09:31 47.31049 10.36748 23077 ft 459 kts 100°
2026-04-28 09:31 47.30516 10.41391 23072 ft 459 kts 101°
2026-04-28 09:32 47.29958 10.46002 23076 ft 459 kts 101°
2026-04-28 09:32 47.29384 10.50585 23066 ft 459 kts 102°
2026-04-28 09:32 47.28836 10.55175 22839 ft 458 kts 98°
2026-04-28 09:32 47.28750 10.59786 21856 ft 463 kts 86°
2026-04-28 09:33 47.29068 10.64577 20860 ft 466 kts 83°
2026-04-28 09:33 47.29457 10.69318 20072 ft 464 kts 83°
2026-04-28 09:33 47.29844 10.74021 19348 ft 460 kts 83°
2026-04-28 09:33 47.30208 10.78582 18938 ft 448 kts 83°
2026-04-28 09:34 47.30562 10.83114 18216 ft 443 kts 84°
2026-04-28 09:34 47.30907 10.87613 17453 ft 440 kts 83°
2026-04-28 09:34 47.31246 10.92080 16755 ft 435 kts 83°
2026-04-28 09:34 47.31576 10.96472 16075 ft 429 kts 84°
2026-04-28 09:35 47.31900 11.00821 15401 ft 424 kts 84°
2026-04-28 09:35 47.32219 11.05116 14731 ft 419 kts 84°
2026-04-28 09:35 47.32531 11.09352 14083 ft 414 kts 84°
2026-04-28 09:35 47.32840 11.13564 13370 ft 409 kts 84°
2026-04-28 09:36 47.33141 11.17690 12690 ft 403 kts 84°
2026-04-28 09:36 47.33437 11.21770 12039 ft 398 kts 84°
2026-04-28 09:36 47.33730 11.25809 11395 ft 392 kts 84°
2026-04-28 09:36 47.34013 11.29754 10990 ft 381 kts 84°
2026-04-28 09:37 47.34285 11.33556 10822 ft 364 kts 84°
2026-04-28 09:37 47.34540 11.37146 11003 ft 347 kts 84°
2026-04-28 09:37 47.34794 11.40738 11503 ft 355 kts 84°
2026-04-28 09:37 47.35052 11.44401 12037 ft 361 kts 84°
2026-04-28 09:38 47.35312 11.48107 12619 ft 366 kts 84°
2026-04-28 09:38 47.35574 11.51862 13005 ft 370 kts 84°
2026-04-28 09:38 47.35838 11.55646 13092 ft 367 kts 84°
2026-04-28 09:38 47.36090 11.59288 12893 ft 347 kts 84°
2026-04-28 09:39 47.36270 11.61876 10195 ft 330 kts 84°
2026-04-28 09:39 47.36494 11.65074 10147 ft 306 kts 84°
2026-04-28 09:39 47.36717 11.68100 9945 ft 289 kts 83°
2026-04-28 09:39 47.37040 11.70924 9740 ft 273 kts 78°
2026-04-28 09:40 47.37409 11.73593 9624 ft 255 kts 80°
2026-04-28 09:40 47.37609 11.76063 9608 ft 231 kts 88°
2026-04-28 09:40 47.37486 11.78330 9585 ft 216 kts 105°
2026-04-28 09:40 47.36838 11.80282 9593 ft 211 kts 133°
2026-04-28 09:41 47.35641 11.81436 9593 ft 207 kts 168°
2026-04-28 09:41 47.34248 11.81309 9585 ft 202 kts 207°
2026-04-28 09:41 47.33246 11.79925 9588 ft 200 kts 242°
2026-04-28 09:41 47.32949 11.78173 8888 ft 0 kts 271°
2026-04-28 09:42 47.33233 11.76448 8185 ft 200 kts 298°
2026-04-28 09:42 47.33844 11.74621 7856 ft 203 kts 288°
2026-04-28 09:42 47.34100 11.72588 7767 ft 181 kts 268°
2026-04-28 09:42 47.33902 11.70866 7793 ft 164 kts 253°
2026-04-28 09:43 47.33602 11.69229 7382 ft 174 kts 255°
2026-04-28 09:43 47.33278 11.67432 6885 ft 188 kts 254°
2026-04-28 09:43 47.32900 11.65525 6467 ft 197 kts 253°
2026-04-28 09:43 47.32490 11.63584 6117 ft 199 kts 252°
2026-04-28 09:44 47.32067 11.61651 5788 ft 198 kts 252°
2026-04-28 09:44 47.31640 11.59735 5458 ft 197 kts 252°
2026-04-28 09:44 47.31210 11.57824 5157 ft 196 kts 252°
2026-04-28 09:44 47.30779 11.55919 4832 ft 195 kts 252°
2026-04-28 09:45 47.30351 11.54035 4528 ft 193 kts 252°
2026-04-28 09:45 47.29929 11.52178 4252 ft 192 kts 252°
2026-04-28 09:45 47.29499 11.50328 3932 ft 190 kts 249°
2026-04-28 09:45 47.28971 11.48631 3809 ft 170 kts 244°
2026-04-28 09:46 47.28511 11.47178 3727 ft 148 kts 246°
2026-04-28 09:46 47.28122 11.45859 3554 ft 133 kts 245°
2026-04-28 09:46 47.27682 11.44404 3652 ft 175 kts 247°
2026-04-28 09:46 47.27389 11.43346 3654 ft 162 kts 248°
2026-04-28 09:47 47.27033 11.41828 3369 ft 154 kts 252°
2026-04-28 09:47 47.26727 11.40329 3000 ft 150 kts 254°
2026-04-28 09:47 47.26488 11.38836 2505 ft 152 kts 261°
2026-04-28 09:47 47.26337 11.37331 2177 ft 142 kts 262°
2026-04-28 09:48 47.26134 11.35478 1925 ft 135 kts 259°
2026-04-28 09:48 47.26047 11.34644 1909 ft 100 kts 263°